Torna al catalogo

FENGYUN 1C DEB

LostPO
NORAD 36154·DEBRIS·🇨🇳 China

Lanciato May 10, 1999 da Taiyuan Satellite Launch Center

Loading…

Prossimi Passaggi (prossime 24 ore)

TLE

ObsoletoSource: Space-Track

Epoca: Sep 22, 2022, 08:07 UTC

1 36154U 99025DSB 22265.33860985  .00002074  00000-0  14029-2 0  9994
2 36154  97.7237 300.1134 0313366 275.9426  80.6103 13.80001187695406

Traccia FENGYUN 1C DEB in tempo reale con AllMySat

Download on the App Store